User: anonymous   Login
Location: Shell Point
(30.0571°N, 84.2896°W)
Time: 23:21:44
(UTC-05:00)
Language:

Meteor 2-19 Rocket - Orbit

View from above orbital plane
View from above orbital plane
View from above satellite
View from above satellite

Ground track
Ground track

The orbit data is extracted from the following two-line orbital elements,

1 20671U 90057B   15065.18464716  .00000061  00000-0  40619-4 0  9992
2 20671 082.5486 315.0418 0016085 136.1514 028.8651 13.84586477247651
Epoch (UTC): 06 March 2015 04:25:53
Eccentricity: 0.0016085
inclination: 82.5486°
perigee height: 936 km
apogee height: 959 km
right ascension of ascending node: 315.0418°
argument of perigee: 136.1514°
revolutions per day: 13.84586477
mean anomaly at epoch: 28.8651°
orbit number at epoch: 24765

The dashed part of the orbit path shows where the satellite is in the earth's shadow,  

DLR